Details From LEBL - Barcelona El Prat
To LXGB - Gibraltar
Flight Number -
Tags Generated
Created
Modified
Stats Distance 475 nm / 879 km
Max Altitude 0 ft / 0 m
Waypoints 4
Social Downloads 14
Likes 0
Share VATSIM

Download

Looking for another format? Having issues loading an existing format? Contact us
Advertisement - Login to hide

Notes

Generated

Route

LEBL ABT BRIKE LXGB

ID Type Via Altitude Latitude Longitude Leg Dist Tot Dist Heading (true) Name
O LEBL APT - 0 ft / 0 m 41.28777˚ 2.08484˚ - 0 nm - -
ABT NDB - 0 ft / 0 m 38.94408˚ -1.99767˚ 234 nm 234 nm 234° / 232° ALBACETE NDB
BRIKE FIX - 0 ft / 0 m 36.50478˚ -5.41645˚ 218 nm 453 nm 229° / 227° -
O LXGB APT - 0 ft / 0 m 36.15080˚ -5.35977˚ 21 nm 474 nm 173° / 173° -

Altitude Profile

Advertisement - Login to hide

Weather


0- 5 10 15 20 25 30 35+ Temperature / ° C

Clouds and Precipitation
Forecast for 2017-12-13 06:00 UTC. Updated a few seconds ago

Ground ~20,000 ft ~40,000 ft Winds

LEBL

Details ICAO LEBL (BCN)
Name Barcelona - El Prat
Region Spain
Timezone Europe/Madrid (UTC+1.0)
Stats Elevation 14 ft / 4 m (AMSL)
Location 41.295108° 2.088030°
Runways 3
Magnetic Variation 0.819° E

METAR

LEBL 130500Z 33013KT CAVOK 03/M00 Q1023 NOSIG

Decode

TAF

TAF LEBL 122300Z 1300/1324 33010KT 9999 FEW025 TX14/1312Z TN03/1306Z PROB40 TEMPO 1300/1309 33015G25KT BECMG 1310/1312 25013KT

Decode

Departure Runways

ID Width Length Bearing (true) Bearing (mag) Surface Threshold Offset Overrun Length
02 148 ft / 45 m 8,343 ft / 2,543 m 18.93° 18.11° Asphalt 0 ft / 0 m 348 ft / 106 m
07L 197 ft / 60 m 10,983 ft / 3,348 m 65.49° 64.67° Asphalt 1,411 ft / 430 m 1,161 ft / 354 m
07R 197 ft / 60 m 8,718 ft / 2,657 m 65.49° 64.67° Asphalt 0 ft / 0 m 207 ft / 63 m
20 148 ft / 45 m 8,343 ft / 2,543 m 198.93° 198.11° Asphalt 0 ft / 0 m 200 ft / 61 m
25L 197 ft / 60 m 8,718 ft / 2,657 m 245.51° 244.69° Asphalt 0 ft / 0 m 203 ft / 62 m
25R 197 ft / 60 m 10,983 ft / 3,348 m 245.51° 244.69° Asphalt 0 ft / 0 m 522 ft / 159 m

LXGB

Details ICAO LXGB (GIB)
Name Gibraltar
Region Gibralter
Timezone Europe/Gibraltar (UTC+1.0)
Stats Elevation 15 ft / 5 m (AMSL)
Location 36.151209° -5.349664°
Runways 1
Magnetic Variation 1.123° W

METAR

LXGB 130450Z AUTO 25004KT 9999 // NCD 08/02 Q1026

Decode

TAF

Not found

Destination Runways

ID Width Length Bearing (true) Bearing (mag) Surface Threshold Offset Overrun Length
27 151 ft / 46 m 5,992 ft / 1,826 m 267.56° 268.68° Asphalt 367 ft / 112 m 89 ft / 27 m
9 151 ft / 46 m 5,992 ft / 1,826 m 87.54° 88.66° Asphalt 299 ft / 91 m 52 ft / 16 m

Popular Alternatives